Starlink 35149

operational
NORAD ID: 65512 Int'l Des: 2025-198 Owner: SPXS Country: US Constellation: starlink
LEOCIRCULAR

Starlink 35149について

説明を読み込み中...

リアルタイム位置

3D地球を読み込み中...

次回通過

高度履歴

Altitude vs Time

uPlot chart will show altitude changes over time

軌道要素

1 65512U 25198W 26062.08606911 .00030215 00000-0 10277-2 0 9991
2 65512 53.1578 301.3423 0001071 76.3512 283.7608 15.30214508 27618
Epoch: Mar 3, 2026 • Age: 15 hours

現在のステータス

高度 478.9 km
速度 7.63 km/s
衛星直下点 44.29°N, 38.94°W
打ち上げ日 Sep 5, 2025
運用期間 0.4 years
タイプ internet

技術仕様

分類 Payload
質量 575.00 kg
乾燥質量 530.00 kg
総質量 575.00 kg
長さ 0.30 m
直径 4.10 m
スパン 29.00 m
形状 Box + pan
製造者 SPXS
バスタイプ Starlink V2MO
フェーズステータス In Orbit
所有者/国 SPXS/US

大規模コンステレーション

Loading constellations...